Regional Weather Roundup
Issued by NWS

Home | Current Version | Previous Version | Graphics & Text | Print | Product List | Glossary On
Versions: 1 2 3 4 5 6 7 8 9 10 11 12 13 14 15 16 17 18 19 20 21 22 23 24 25 26 27 28 29 30 31 32 33 34 35 36 37 38 39 40 41 42 43 44 45 46 47 48 49 50
000
ASUS45 KPSR 030500
RWRAZ

PRELIMINARY ARIZONA REGIONAL HOURLY WEATHER ROUNDUP
NATIONAL WEATHER SERVICE PHOENIX AZ
1000 PM MST MON MAR 02 2015

NOTE: FAIR INDICATES FEW OR NO CLOUDS BELOW 12,000 FEET WITH NO
SIGNIFICANT WEATHER AND/OR OBSTRUCTIONS TO VISIBILITY.

AZZ001>003-036-030600-
NORTHWEST ARIZONA

CITY           SKY/WX    TMP DP  RH WIND       PRES   REMARKS
KINGMAN        FAIR      38  33  82 CALM      29.95R
$$

AZZ004>008-015-016-018-030600-
NORTH CENTRAL ARIZONA

CITY           SKY/WX    TMP DP  RH WIND       PRES   REMARKS
GRAND CANYON   CLOUDY    28  28 100 SW8       29.95R WCI  20
PRESCOTT       CLOUDY    36  33  89 S3        29.99R
FLAGSTAFF      NOT AVBL
PAYSON         MOCLDY    36  34  93 CALM      30.03R
PAGE           FAIR      41  28  60 S3        29.91R
$$

AZZ009>014-017-030600-
NORTHEAST ARIZONA

CITY           SKY/WX    TMP DP  RH WIND       PRES   REMARKS
WINSLOW        NOT AVBL
SAINT JOHNS    FAIR     N/A N/A N/A W13       29.99S
WINDOW ROCK    CLOUDY    33  28  81 SW9       29.97R WCI  25
SHOW LOW       FAIR      30  28  93 S16       29.99S WCI  19
$$

AZZ023-030600-
GREATER PHOENIX AREA

CITY           SKY/WX    TMP DP  RH WIND       PRES   REMARKS
PHOENIX        MOCLDY    52  48  86 E5        29.99S
LUKE AFB       LGT RAIN  54  48  82 VRB1      30.00R
DEER VALLEY    CLOUDY    50  45  83 CALM      29.99S
SCOTTSDALE     MOCLDY    50  45  83 CALM      30.01S
MESA-GATEWAY   MOCLDY    48  46  93 CALM      30.02S
$$

AZZ027-028-030600-
SOUTHWEST MARICOPA COUNTY AND PINAL COUNTY

CITY           SKY/WX    TMP DP  RH WIND       PRES   REMARKS
CASA GRANDE    FAIR      48  45  87 N6        30.01R
$$

AZZ503-504-507>509-030600-
SOUTHEAST ARIZONA

CITY           SKY/WX    TMP DP  RH WIND       PRES   REMARKS
TUCSON         CLOUDY    52  48  86 E5        30.02F
DAVIS-MONTHAN  MOCLDY    51  48  91 E3        30.00F
NOGALES        LGT RAIN  50  46  86 CALM      30.01F
SIERRA VISTA   LGT RAIN  46  46 100 W10       30.01S
SAFFORD        CLOUDY    48  40  73 NW12      29.98F
$$

AZZ020-021-025-026-031-030600-
SOUTHWEST ARIZONA

CITY           SKY/WX    TMP DP  RH WIND       PRES   REMARKS
YUMA           NOT AVBL
$$

CAZ031-033-041-043-047-048-061-030600-
SOUTHERN CALIFORNIA

CITY           SKY/WX    TMP DP  RH WIND       PRES   REMARKS
DOWNTOWN L.A.  FAIR      55  47  74 E5        29.96S
L.A. AIRPORT   FAIR      54  47  77 E9        29.96S
SAN DIEGO      LGT RAIN  57  44  62 SE6       29.99S
BURBANK        MOCLDY    53  44  71 SE6       29.95S
ONTARIO        MOCLDY    49  42  77 NW6       29.97R
RIVERSIDE      FAIR      49  42  77 CALM      29.98R
PALM SPRINGS   FAIR      53  43  68 CALM      29.96S
EL CENTRO NAS  FAIR      55  42  61 W14       29.97R
IMPERIAL       FAIR      53  44  71 W8        29.97R
BLYTHE         FAIR      55  44  66 S9        29.96R
$$

NVZ020-UTZ003-030600-
SOUTHERN NEVADA-UTAH

CITY           SKY/WX    TMP DP  RH WIND       PRES   REMARKS
LAS VEGAS      NOT AVBL
SALT LAKE CITY CLOUDY    35  33  92 CALM      29.78R
$$

NMZ009-TXZ055-030600-
NEW MEXICO-WEST TEXAS

CITY           SKY/WX    TMP DP  RH WIND       PRES   REMARKS
ALBUQUERQUE    CLOUDY    46  37  71 NW10      29.96R
EL PASO        MOCLDY    61  44  53 SW9       29.97S
$$


........................KEY........................
SKY/WX - SKY CONDITION/WEATHER
TMP    - TEMPERATURE IN FAHRENHEIT
DP     - DEW POINT IN FAHRENHEIT
RH     - RELATIVE HUMIDITY IN PERCENT
WIND   - DIRECTION AND SPEED IN MILES PER HOUR (MPH)
VRB    - VARIABLE WIND DIRECTION
PRES   - MEAN SEA LEVEL PRESSURE IN INCHES OF MERCURY
         F - FALLING PRESSURE   R - RISING PRESSURE
         S - STEADY PRESSURE
VSB    - VISIBILITY IN MILES
HX     - HEAT INDEX IN FAHRENHEIT
WCI    - WIND CHILL INDEX IN FAHRENHEIT
TC     - TEMPERATURE IN CELSIUS WHICH IS ALSO KNOWN AS
         TEMPERATURE IN CENTIGRADE
AFB    - AIR FORCE BASE
         LUKE AFB IS LUKE AIR FORCE BASE
         DAVIS-MONTHAN IS DAVIS-MONTHAN AIR FORCE BASE
NAS    - NAVAL AIR STATION
         EL CENTRO NAS IS EL CENTRO NAVAL AIR STATION
N/A    - NOT AVAILABLE


USA.gov is the U.S. government's official web portal to all federal, state and local government web resources and services.